Weather History for Panama City Tyndall AFB, FL

Change the Weather History Date:

Tuesday, October 2, 2012

  Actual Average Record
Temperature  
Mean Temperature 72 °F -  
Max Temperature 80 °F 81 °F 91 °F (2002)
Min Temperature 65 °F 66 °F 55 °F (2001)
Cooling Degree Days 8    
Growing Degree Days 22 (Base 50)    
Moisture  
Dew Point 71 °F    
Average Humidity 88    
Maximum Humidity 100    
Minimum Humidity 78    
Precipitation  
Precipitation 0.00 in - - ()
Sea Level Pressure  
Sea Level Pressure 29.83 in    
Wind  
Wind Speed 11 mph (WSW)    
Max Wind Speed 15 mph    
Max Gust Speed 21 mph    
Visibility 10 miles    
Events Rain    
Averages and records for this station are not official NWS values.
T = Trace of Precipitation, MM = Missing Value Source: NWS Daily Summary

Daily Weather History Graph

Daily Weather History Graph

Search for Another Location

Airport:

Trip Planner

Search our weather history database for the weather conditions in past years. The results will help you decide how hot, cold, wet, or windy it might be!

Date:

Astronomy

Oct. 02, 2012 Rise Set
Actual Time 6:36 AM CDT 6:25 PM CDT
Civil Twilight 6:12 AM CDT 6:49 PM CDT
Nautical Twilight 5:44 AM CDT 7:17 PM CDT
Astronomical Twilight 5:17 AM CDT 7:45 PM CDT
Moon 7:53 PM CDT (10/2) 8:49 AM CDT (10/2)
Length of Visible Light 12h 37m
Length of Day
11h 49m
Waning Gibbous, 94% of the Moon is Illuminated
Oct 2
Waning Gibbous
Oct 8
Last Quarter
Oct 15
New
Oct 21
First Quarter
Oct 29
Full

Hourly Weather History & Observations

Time (CDT) Temp. Heat Index Dew Point Humidity Pressure Visibility Wind Dir Wind Speed Gust Speed Precip Events Conditions
12:55 AM 74.7 °F - 70.7 °F 87% 29.73 in 10.0 mi WSW 12.7 mph - N/A   Partly Cloudy
1:55 AM 74.3 °F - 70.7 °F 88% 29.73 in 10.0 mi WSW 15.0 mph - N/A   Partly Cloudy
2:04 AM 75.2 °F - 69.8 °F 83% 29.74 in 10.0 mi WSW 13.8 mph - N/A   Mostly Cloudy
2:09 AM 75.2 °F - 69.8 °F 83% 29.74 in 10.0 mi WSW 12.7 mph - N/A   Scattered Clouds
2:30 AM 75.2 °F - 69.8 °F 83% 29.74 in 10.0 mi WSW 12.7 mph - N/A   Mostly Cloudy
2:34 AM 75.2 °F - 71.6 °F 89% 29.74 in 10.0 mi WSW 12.7 mph - N/A   Scattered Clouds
2:43 AM 75.2 °F - 71.6 °F 89% 29.74 in 10.0 mi West 9.2 mph - N/A   Mostly Cloudy
2:55 AM 74.7 °F - 71.6 °F 90% 29.75 in 10.0 mi WSW 13.8 mph - N/A   Mostly Cloudy
2:56 AM 75.2 °F - 71.6 °F 89% 29.75 in 10.0 mi WSW 13.8 mph - N/A   Scattered Clouds
3:48 AM 73.4 °F - 71.6 °F 94% 29.75 in 10.0 mi WSW 9.2 mph - N/A   Mostly Cloudy
3:55 AM 74.1 °F - 70.9 °F 90% 29.75 in 10.0 mi WSW 11.5 mph - N/A   Mostly Cloudy
3:57 AM 73.4 °F - 71.6 °F 94% 29.75 in 10.0 mi WSW 12.7 mph - N/A   Mostly Cloudy
4:01 AM 73.4 °F - 71.6 °F 94% 29.75 in 10.0 mi West 13.8 mph - N/A   Mostly Cloudy
4:08 AM 73.4 °F - 71.6 °F 94% 29.75 in 10.0 mi West 10.4 mph - N/A Rain Light Rain
4:14 AM 73.4 °F - 71.6 °F 94% 29.75 in 10.0 mi West 10.4 mph - N/A Rain Light Rain
4:17 AM 73.4 °F - 71.6 °F 94% 29.75 in 10.0 mi West 11.5 mph - N/A   Mostly Cloudy
4:51 AM 73.4 °F - 69.8 °F 88% 29.76 in 10.0 mi WSW 11.5 mph - N/A   Scattered Clouds
4:55 AM 74.1 °F - 70.5 °F 88% 29.76 in 10.0 mi West 11.5 mph - 0.00 in   Scattered Clouds
5:22 AM 73.4 °F - 69.8 °F 88% 29.77 in 10.0 mi WSW 9.2 mph - N/A   Mostly Cloudy
5:45 AM 75.2 °F - 69.8 °F 83% 29.78 in 10.0 mi WSW 12.7 mph 19.6 mph N/A   Mostly Cloudy
5:55 AM 74.3 °F - 69.8 °F 86% 29.78 in 10.0 mi SW 12.7 mph - N/A   Scattered Clouds
6:28 AM 73.4 °F - 71.6 °F 94% 29.79 in 10.0 mi WSW 9.2 mph - N/A   Mostly Cloudy
6:34 AM 73.4 °F - 71.6 °F 94% 29.80 in 10.0 mi WSW 11.5 mph - N/A   Mostly Cloudy
6:48 AM 75.2 °F - 71.6 °F 89% 29.79 in 10.0 mi WSW 10.4 mph - N/A   Mostly Cloudy
6:55 AM 73.4 °F - 71.6 °F 94% 29.80 in 10.0 mi WSW 8.1 mph - N/A   Scattered Clouds
7:24 AM 75.2 °F - 69.8 °F 83% 29.81 in 10.0 mi SW 13.8 mph - N/A   Mostly Cloudy
7:31 AM 75.2 °F - 71.6 °F 89% 29.81 in 10.0 mi SW 12.7 mph - N/A   Scattered Clouds
7:55 AM 75.4 °F - 69.6 °F 82% 29.82 in 10.0 mi WSW 13.8 mph - N/A   Partly Cloudy
8:55 AM 77.2 °F - 70.2 °F 79% 29.84 in 10.0 mi WSW 15.0 mph - N/A   Mostly Cloudy
9:55 AM 77.4 °F - 71.6 °F 82% 29.86 in 10.0 mi WSW 15.0 mph - N/A   Mostly Cloudy
10:55 AM 79.9 °F - 72.3 °F 78% 29.87 in 10.0 mi WSW 15.0 mph - N/A   Mostly Cloudy
10:59 AM 80.6 °F 85.4 °F 73.4 °F 79% 29.87 in 10.0 mi West 11.5 mph - N/A   Mostly Cloudy
11:03 AM 80.6 °F 85.4 °F 73.4 °F 79% 29.87 in 10.0 mi West 10.4 mph 20.7 mph N/A   Mostly Cloudy
11:49 AM 77.0 °F - 71.6 °F 83% 29.88 in 8.0 mi NW 11.5 mph - N/A   Mostly Cloudy
11:55 AM 77.0 °F - 72.5 °F 86% 29.88 in 9.0 mi NNW 12.7 mph - N/A   Overcast
11:56 AM 77.0 °F - 71.6 °F 83% 29.88 in 9.0 mi NW 12.7 mph - N/A   Mostly Cloudy
12:55 PM 77.4 °F - 72.3 °F 84% 29.88 in 10.0 mi West 10.4 mph - N/A   Mostly Cloudy
1:55 PM 77.7 °F - 72.7 °F 84% 29.88 in 10.0 mi West 8.1 mph - N/A   Mostly Cloudy
2:55 PM 76.3 °F - 72.0 °F 86% 29.88 in 10.0 mi West 9.2 mph - N/A   Mostly Cloudy
3:01 PM 77.0 °F - 71.6 °F 83% 29.88 in 10.0 mi West 10.4 mph - N/A   Mostly Cloudy
3:55 PM 77.0 °F - 71.6 °F 83% 29.88 in 10.0 mi West 11.5 mph - N/A   Scattered Clouds
4:23 PM 75.2 °F - 71.6 °F 89% 29.89 in 10.0 mi West 10.4 mph - N/A   Mostly Cloudy
4:42 PM 75.2 °F - 71.6 °F 89% 29.89 in 10.0 mi West 9.2 mph - N/A   Mostly Cloudy
4:55 PM 75.7 °F - 71.2 °F 86% 29.90 in 10.0 mi West 10.4 mph - N/A   Mostly Cloudy
5:11 PM 75.2 °F - 71.6 °F 89% 29.89 in 10.0 mi West 12.7 mph - N/A   Scattered Clouds
5:16 PM 75.2 °F - 71.6 °F 89% 29.90 in 10.0 mi West 10.4 mph - N/A   Mostly Cloudy
5:42 PM 75.2 °F - 71.6 °F 89% 29.90 in 10.0 mi West 12.7 mph - N/A   Scattered Clouds
5:55 PM 74.5 °F - 70.2 °F 86% 29.91 in 10.0 mi West 6.9 mph - N/A   Scattered Clouds
6:55 PM 72.9 °F - 69.3 °F 88% 29.92 in 10.0 mi West 6.9 mph - N/A   Clear
7:55 PM 69.6 °F - 68.7 °F 97% 29.95 in 10.0 mi Calm Calm - N/A   Partly Cloudy
8:55 PM 66.9 °F - 66.9 °F 100% 29.97 in 10.0 mi Calm Calm - N/A   Partly Cloudy
9:55 PM 65.7 °F - 65.7 °F 100% 30.00 in 10.0 mi Calm Calm - N/A   Clear
10:55 PM 65.3 °F - 65.3 °F 100% 30.01 in 10.0 mi Calm Calm - N/A   Scattered Clouds
11:55 PM 66.6 °F - 66.6 °F 100% 30.01 in 10.0 mi Calm Calm - N/A   Overcast